User: anonymous   Login
Location: Allison's Woods
(35.8809°N, 80.8140°W)
Time: 13:29:35
(UTC-05:00)
Language:

Iridium 39 - Orbit

View from above orbital plane
View from above orbital plane
View from above satellite
View from above satellite

Ground track
Ground track

The orbit data is extracted from the following two-line orbital elements,

1 25042U 97069D   14329.31367546  .00000645  00000-0  22311-3 0   626
2 25042 086.4002 052.9366 0002046 107.9110 252.2309 14.34216154892314
Epoch (UTC): 25 November 2014 07:31:41
Eccentricity: 0.0002046
inclination: 86.4002°
perigee height: 776 km
apogee height: 779 km
right ascension of ascending node: 52.9366°
argument of perigee: 107.9110°
revolutions per day: 14.34216154
mean anomaly at epoch: 252.2309°
orbit number at epoch: 89231

The dashed part of the orbit path shows where the satellite is in the earth's shadow,  

DLR